Accueil
METAR-TAF:

METAR-TAF

Aéroports :

Nevers, France

Aéroport de Nevers-Fourchambault

latitude: 47-00N, longitude: 003-06E, altitude: 180 m

Observation

Le bulletin a été fait il y a 1 heure et 17 minutes, à 18:00 UTC
Vent 16 kt de ouest, variant entre sud-ouest et ouest/nord-ouest
Température 7°C
Humidité 70%
Pression 988 hPa
Visibilité 10 km ou plus
Nuages épars à une hauteur de 2600 ft
Ciel couvert à une hauteur de 3900 ft

METAR: LFQG 111800Z AUTO 26016KT 220V290 9999 SCT026 OVC039 07/02 Q0988

Heure: 20:17 (19:17 UTC)


TAF: absent

Observations et prévisions météorologiques de plus de 4000 aéroports (messages METAR et TAF).

Les stations disponibles sont représentées par des disques jaunes et rouges sur la carte.

Passer la souris dessus pour voir le nom de la station.

Cliquer dessus pour voir les observations et prévisions météorologiques.

Pour changer de carte: cliquez sur les boutons verts avec une croix noire pour zoomer, sur le bouton vert avec un tiret pour effectuer un zoom arrière, ou sur les flèches vertes pour les cartes adjacentes.


METAR-TAF: